Location: Narrabri
(30.3170°S, 149.7830°E)
Time: 02:54:10
(UTC+11:00)

Tiangong 2 - Pass Details

Date: 07 October 2017
Orbit: 388 x 391 km, 42.8° (Epoch: 21 October)

Event Time Altitude Azimuth Distance (km) Brightness Sun altitude
Rises 19:28:29 0° 260° (W) 2,286 8.0 -5.7°
Reaches altitude 10° 19:31:12 10° 236° (SW) 1,433 5.2 -6.3°
Maximum altitude 19:33:12 15° 197° (SSW) 1,165 3.9 -6.7°
Drops below altitude 10° 19:35:12 10° 159° (SSE) 1,437 3.9 -7.1°
Sets 19:37:56 0° 135° (SE) 2,296 4.7 -7.7°
